Location: 5810 Zion Rd, Cleves, OH 45002, USA
(39.1922°N, 84.7113°W)
Time: 15:14:17
(UTC-05:00)

Courier 1B Rocket - Pass Details

Date: 11 December 2019
Orbit: 920 x 1202 km, 28.2° (Epoch: 20 January)

Event Time Altitude Azimuth Distance (km) Brightness Sun altitude
Rises 07:27:29 0° 242° (WSW) 3,830 7.8 -4.3°
Reaches altitude 10° 07:30:37 10° 232° (SW) 2,828 7.2 -3.8°
Maximum altitude 07:36:25 30° 174° (S) 1,689 6.7 -2.8°
Drops below altitude 10° 07:41:55 10° 115° (ESE) 2,674 9.5 -1.9°
Sets 07:44:47 0° 105° (ESE) 3,590 10.0 -1.4°
